星链-5777 (STARLINK-5777 )

导读 | 星芒AI

STARLINK-5777 是 SpaceX Starlink 项目中的一颗低轨道通信卫星,属于第 57 批部署的星链卫星群。该卫星用于提供全球范围内的高速互联网服务,尤其服务于偏远和网络覆盖不足的地区。它运行在约 550 公里的轨道高度,采用先进的相控阵天线和激光通信技术,以提升连接速度和稳定性。作为星链计划的一部分,STARLINK-5777 有助于构建一个由数千颗卫星组成的全球宽带网络系统。

基本信息
目录编号:
56027
目录名称:
STARLINK-5777
国际标识:
2023-042AT
轨道中心:
EARTH
卫星名称:
星链-5777
卫星全名:
星链-5777 (STARLINK-5777 )
卫星状态:
在轨 (已飞行956 天)
发射日期:
2023-03-24 UTC
国别 :
美国 (US)
星等 :
--
轨道信息
数据来源 国际轨道数据
星历时间: 2025-11-04T05:00:48+0800
14小时前
查看轨道信息
半长轴: 6937.227km
偏心率: 0.0001082
轨道倾角: 43.007°
近地点辐角 268.496°
升交点赤经 6.824°
平近点角 91.576°
近地点: 558.341km
远地点: 559.843km
周期: 95.838分钟
每日圈数: 15.025327
详细信息
固有亮度:
5
最大亮度:
2.5
卫星平台:
Starlink v1.5
覆盖范围:
全球
运营商:
太空探索技术公司
运营商所在国:
美国
制造商(研发单位):
太空探索技术公司
制造商所在国:
美国
使用方式:
暂无
卫星简介
星链(Starlink)计划是由太空探索技术公司(SpaceX)提出的一个巨型低轨卫星互联网星座项目,计划在2019年至2024年间在太空搭建由约1.2万颗卫星组成的“星链”网络,其中1584颗将部署在地球上空550千米处的近地轨道,并从2020年开始工作。该卫星仍在工作。
2D轨道图
3D轨道图
轨道高度分析图
轨道倾角分析图
轨道综合分析图
查看轨道综合分析图